Showing default

ION SCV-006, 52761

Orbit data source: Space-Track

ION SCV-006, 52761 is a payload satellite owned by D-ORBIT (IT) in SSO that was launched on Wed, 25 May 2022 UTC via an FALCON 9 launch vehicle from the Air Force Eastern Test Range (AFETR). Payload-class satellites include a variety of spacecraft equipped with specific instruments for various scientific and technological missions. These include communications satellites like Starlink; space stations such as the ISS; scientific satellites like the Hubble; Earth observation satellites from companies like Planet Labs, Umbra, and HawkEye 360; GPS; miniature CubeSats for education and research; and military/defense satellites.

Loading next visibility...
Identifier
52761, 2022-057AF
Orbit
SSO
Country
Flag of ITIT
Related business
Manufacturer
D-ORBIT
Mission
Operational Commercial Technology
Bus & Motor
ION-SC, PM200
Mass
220 kg wet, 150 kg dry
Launch date (UTC)
2022-05-25 (4 years ago)
Launch vehicle
FALCON 9
Launch site
Air Force Eastern Test Range (AFETR)
Object type
Payload
Rocket body
Debris
Shape & HBR
Box, 1.9 m
Radar Cross Section
0.240 m², Large (>1 m²)

Expand to show TLE details & history
Last TLE update: 2 days ago

TLE from 2 days ago
0 ION SCV-006
1 52761U 22057AF  26171.46750413  .00011140  00000-0  23393-3 0  9994
2 52761  97.6109 320.2466 0018330 102.6438 257.6861 15.45357696226621
Epoch: 2026-06-20T11:13Z
TLE epoch observation values (Epoch: 2026-06-20T11:13:12.356Z)
Latitude
-0.00006°
Longitude
-116.73658°
Altitude
436.13 km
Speed
7.649 km/s
True Right ascension
21h 20m 59s
True Declination
0° 00' 00"
Sunlit
Object was in full shadow at epoch
Visualization orbit readout
Latitude
Unknown
Longitude
Unknown
Altitude
Unknown
Speed
Unknown
Apparent Right ascension
Unknown
Apparent Declination
Unknown
Sunlit
N/A
Visualization observer readout
Local Sidereal Time
00:56:28
Azimuth
Unknown
Elevation
Unknown
Doppler factor
Unknown
Orbital elements
Apogee altitude
439.743 km
Perigee altitude
414.794 km
Semi-major axis
6,805.405 km
Eccentricity
0.00183
Inclination
97.6109°
RAAN
320.2466°
Arg. of periapsis
102.6438°
True anomaly
257.48099°
Mean anomaly
257.6861°
Eccentric anomaly
257.58353°
Mean motion
3.866 °/min
Orbital period
93.12 mins
BSTAR
0.00023393
Loading maneuver chart data...
Computing Atmospheric mass density...

Documentation

Showing up to 5 results
|